Regional Weather Roundup
Issued by NWS

Home | Current Version | Previous Version | Graphics & Text | Print | Product List | Glossary On
Versions: 1 2 3 4 5 6 7 8 9 10 11 12 13 14 15 16 17 18 19 20 21 22 23 24 25 26 27 28 29 30 31 32 33 34 35 36 37 38 39 40 41 42 43 44 45 46 47 48 49 50
553
ASUS43 KIND 181059
RWRIN

WEATHER ROUNDUP FOR INDIANA
NATIONAL WEATHER SERVICE INDIANAPOLIS IN
700 AM EDT WED OCT 18 2017

NOTE: "FAIR" INDICATES FEW OR NO CLOUDS BELOW 12,000 FEET WITH NO
SIGNIFICANT WEATHER AND/OR OBSTRUCTIONS TO VISIBILITY.

* - STATION DOES NOT REPORT WEATHER SUCH AS PRECIPITATION OR FOG.

+ - STATION NOT QUALITY CONTROLLED BY THE NATIONAL WEATHER SERVICE.
    USE DATA WITH CAUTION...ESPECIALLY DEWPOINT AND RELATIVE
    HUMIDITY OBSERVATIONS.

INZ001>003-010>013-019-020-181200-
NORTHWEST INDIANA

CITY           SKY/WX    TMP DP  RH WIND       PRES   REMARKS
GARY /AIRPORT/ CLEAR     54  39  58 S12       30.20R
MICHIGAN CITY+ CLEAR     48  39  71 S7        30.22R
MONTICELLO +   CLEAR     48  40  73 S6        30.23S
RENSSELAER +   CLEAR     43  36  75 CALM      30.23R

$$

LMZ046-743>745-181200-
SOUTHERN LAKE MICHIGAN

STATION/POSITION TIME  TEMP    WIND        PRES    WAVE
                       AIR SEA DIR/SP/G            HT
                 (UTC) (F)     (DEG/KT/KT) (MB)    (FT)
BURNS HARBOR     1040   51     180/ 11/ 15 1023.0R
MICHIGAN CITY    1030   51     170/ 14/ 18   N/A
5NW MICH CITY    1040   52 58  190/ 12/ 16   N/A     2

$$

INZ004-005-014>016-021>024-181200-
NORTH CENTRAL INDIANA

CITY           SKY/WX    TMP DP  RH WIND       PRES   REMARKS
ELKHART        CLEAR     46  39  76 SW5       30.23
GOSHEN         CLEAR     47  38  71 S10       30.23S
PERU/GRISSOM   CLEAR     42  39  87 S5        30.24S
SOUTH BEND     CLEAR     44  40  85 S7        30.23R
WARSAW +       CLEAR     45  39  81 CALM      30.25S

$$

INZ006>009-017-018-025>027-181200-
NORTHEAST INDIANA

CITY           SKY/WX    TMP DP  RH WIND       PRES   REMARKS
FORT WAYNE     CLEAR     40  36  86 S6        30.27R
KENDALLVILLE + CLEAR     47  40  76 SW8       30.25S

$$

INZ028-029-035-036-043>045-051>053-181200-
WEST CENTRAL INDIANA

CITY           SKY/WX    TMP DP  RH WIND       PRES   REMARKS
GREENCASTLE +  CLEAR     41  37  87 CALM      30.26R
LAFAYETTE      CLEAR     40  39  97 CALM      30.25R
TERRE HAUTE    CLEAR     39  37  92 CALM      30.25R

$$

INZ030>032-037>040-046>048-054>057-064-065-181200-
CENTRAL INDIANA

CITY           SKY/WX    TMP DP  RH WIND       PRES   REMARKS
COLUMBUS       CLEAR     39  37  93 CALM      30.28
INDIANAPOLIS   PTCLDY    45  40  82 E5        30.27R
-EAGLE CREEK   CLEAR     42  39  89 CALM      30.26R
KOKOMO +       CLEAR     41  39  93 S7        30.26S
MT COMFORT *+  CLEAR     41  41 100 SE3       30.27S
SHELBYVILLE    CLEAR     40  36  86 E3        30.27R

$$

INZ033-034-041-042-049-050-058-059-181200-
EAST CENTRAL INDIANA

CITY           SKY/WX    TMP DP  RH WIND       PRES   REMARKS
MUNCIE         CLEAR     46  40  79 S3        30.27S
RICHMOND +     CLEAR     37  37 100 SE3       30.30R

$$

INZ060-061-067>069-081>083-085>088-181200-
SOUTHWEST INDIANA

CITY           SKY/WX    TMP DP  RH WIND       PRES   REMARKS
EVANSVILLE     CLEAR     42  40  92 CALM      30.27R
HUNTINGBURG +  CLEAR     43  41  93 SE3       30.27R

$$

INZ062-063-066-070>080-084-089>092-181200-
SOUTH CENTRAL AND SOUTHEAST INDIANA

CITY           SKY/WX    TMP DP  RH WIND       PRES   REMARKS
BLOOMINGTON    CLEAR     39  36  89 CALM      30.26R
MADISON *+     CLEAR     41  41 100 CALM      30.30S
SEYMOUR +      CLEAR     37  37 100 CALM      30.28R

$$





USA.gov is the U.S. government's official web portal to all federal, state and local government web resources and services.